Simultaneous Nadir Overpasses (SNOs) Predictions

Prediction of SNOs between GOES-16 and NOAA-20 Satellite Orbit:

Table of predicted SNOs for the next 14.0 days since TLE Epoch: 12/31/2021
Index Date Time (GOES-16) GOES-16 Lat,Lon NOAA-20 Lat,Lon Distance(km) Time Diff (sec)
1 01/01/2022 06:41:19 -0.03, -75.18 0.92, -79.35 476.29 80
2 01/02/2022 06:25:13 -0.03, -75.17 -0.10, -74.82 40.56 80
3 01/04/2022 18:25:42 0.02, -75.18 -0.08, -75.57 45.13 80
4 01/05/2022 18:09:36 0.02, -75.18 0.95, -71.04 472.37 80
5 01/07/2022 06:31:23 -0.03, -75.19 0.21, -76.30 126.95 80
6 01/08/2022 06:09:57 -0.03, -75.20 -0.82, -71.77 391.07 80
7 01/09/2022 18:31:52 0.03, -75.22 -0.39, -77.06 209.86 80
8 01/10/2022 18:15:46 0.03, -75.23 0.64, -72.53 308.75 80
9 01/12/2022 06:37:32 -0.02, -75.25 0.52, -77.79 288.90 80
10 01/13/2022 06:16:06 -0.02, -75.26 -0.45, -73.24 229.93 80
